TimeCDT,TemperatureF,Dew PointF,Humidity,Sea Level PressureIn,VisibilityMPH,Wind Direction,Wind SpeedMPH,Gust SpeedMPH,PrecipitationIn,Events,Conditions,WindDirDegrees,DateUTC
12:15 AM,76.1,70.7,83,29.93,10.0,South,9.2,-,N/A,,Clear,190,2013-09-20 05:15:00
12:35 AM,75.6,70.5,84,29.93,10.0,SSW,8.1,-,N/A,,Clear,200,2013-09-20 05:35:00
12:55 AM,75.6,70.7,85,29.93,10.0,SSW,8.1,-,N/A,,Clear,200,2013-09-20 05:55:00
1:15 AM,75.6,70.5,84,29.93,10.0,SSW,9.2,16.1,N/A,,Clear,200,2013-09-20 06:15:00
1:35 AM,75.4,70.2,84,29.92,10.0,SSW,8.1,-,N/A,,Clear,200,2013-09-20 06:35:00
1:55 AM,75.2,70.2,84,29.92,10.0,SSW,8.1,-,N/A,,Clear,200,2013-09-20 06:55:00
2:15 AM,75.2,70.0,84,29.91,10.0,SSW,11.5,16.1,N/A,,Clear,200,2013-09-20 07:15:00
2:35 AM,75.2,69.8,83,29.91,10.0,South,10.4,-,N/A,,Clear,190,2013-09-20 07:35:00
2:55 AM,74.7,69.6,84,29.91,10.0,SSW,9.2,-,N/A,,Scattered Clouds,210,2013-09-20 07:55:00
3:15 AM,73.9,69.3,85,29.91,10.0,SSW,8.1,-,N/A,,Scattered Clouds,200,2013-09-20 08:15:00
3:35 AM,73.6,69.1,86,29.90,10.0,SSW,8.1,-,N/A,,Clear,210,2013-09-20 08:35:00
3:55 AM,73.2,69.1,87,29.90,10.0,SW,5.8,-,N/A,,Scattered Clouds,220,2013-09-20 08:55:00
4:15 AM,72.7,68.9,88,29.90,10.0,SSW,4.6,-,N/A,,Scattered Clouds,210,2013-09-20 09:15:00
4:35 AM,72.1,68.5,88,29.90,10.0,SSW,5.8,-,N/A,,Clear,210,2013-09-20 09:35:00
4:55 AM,72.5,68.4,87,29.90,10.0,SSW,9.2,-,N/A,,Clear,210,2013-09-20 09:55:00
5:15 AM,72.5,68.4,87,29.90,10.0,SSW,6.9,-,N/A,,Scattered Clouds,210,2013-09-20 10:15:00
5:35 AM,72.0,68.4,88,29.90,10.0,SSW,5.8,-,N/A,,Clear,210,2013-09-20 10:35:00
5:55 AM,72.0,68.7,89,29.90,10.0,SSW,5.8,-,N/A,,Clear,200,2013-09-20 10:55:00
6:15 AM,72.0,68.5,89,29.90,10.0,SW,4.6,-,N/A,,Mostly Cloudy,220,2013-09-20 11:15:00
6:35 AM,72.0,68.9,90,29.90,10.0,SSW,5.8,-,N/A,,Overcast,200,2013-09-20 11:35:00
6:55 AM,72.1,68.9,89,29.91,10.0,WSW,6.9,-,N/A,,Overcast,240,2013-09-20 11:55:00
7:15 AM,72.5,68.5,87,29.92,10.0,WSW,6.9,-,N/A,,Overcast,240,2013-09-20 12:15:00
7:35 AM,71.6,68.5,90,29.92,10.0,WSW,6.9,-,N/A,Rain,Light Rain,240,2013-09-20 12:35:00
7:55 AM,71.1,68.9,93,29.90,7.0,Calm,Calm,-,N/A,Rain,Light Rain,0,2013-09-20 12:55:00
8:15 AM,72.0,70.5,95,29.91,7.0,South,4.6,-,N/A,,Mostly Cloudy,190,2013-09-20 13:15:00
8:35 AM,73.2,70.5,91,29.90,10.0,SSW,3.5,-,N/A,,Scattered Clouds,210,2013-09-20 13:35:00
8:55 AM,75.0,70.2,85,29.91,10.0,WSW,6.9,-,N/A,,Scattered Clouds,250,2013-09-20 13:55:00
9:15 AM,73.6,68.0,83,29.91,10.0,West,9.2,-,N/A,,Mostly Cloudy,270,2013-09-20 14:15:00
9:35 AM,72.7,68.0,85,29.92,10.0,West,9.2,-,N/A,,Overcast,260,2013-09-20 14:35:00
9:55 AM,71.2,68.4,91,29.92,10.0,WSW,4.6,-,N/A,Rain,Light Rain,250,2013-09-20 14:55:00
10:15 AM,70.7,68.0,91,29.92,10.0,West,6.9,-,N/A,,Overcast,260,2013-09-20 15:15:00
10:35 AM,70.9,67.6,89,29.91,10.0,West,4.6,-,N/A,,Overcast,260,2013-09-20 15:35:00
10:55 AM,71.2,67.5,88,29.91,10.0,Calm,Calm,-,N/A,,Mostly Cloudy,0,2013-09-20 15:55:00
11:15 AM,72.0,68.0,87,29.91,10.0,SW,3.5,-,N/A,,Scattered Clouds,230,2013-09-20 16:15:00
11:35 AM,72.7,67.1,83,29.90,10.0,SW,5.8,-,N/A,,Clear,220,2013-09-20 16:35:00
11:55 AM,73.4,67.6,82,29.90,10.0,SW,5.8,-,N/A,,Scattered Clouds,220,2013-09-20 16:55:00
12:15 PM,73.9,67.6,81,29.90,10.0,SW,3.5,-,N/A,,Clear,220,2013-09-20 17:15:00
12:35 PM,74.3,66.0,75,29.90,10.0,WSW,5.8,-,N/A,,Scattered Clouds,240,2013-09-20 17:35:00
12:55 PM,73.8,65.8,76,29.89,10.0,WSW,6.9,-,N/A,,Overcast,240,2013-09-20 17:55:00
1:15 PM,74.1,65.8,75,29.89,10.0,SW,10.4,-,N/A,,Mostly Cloudy,230,2013-09-20 18:15:00
1:35 PM,73.4,66.0,78,29.88,10.0,SW,11.5,-,N/A,Rain,Light Rain,230,2013-09-20 18:35:00
1:55 PM,72.9,66.6,81,29.88,10.0,SW,10.4,-,N/A,Rain,Rain,230,2013-09-20 18:55:00
2:15 PM,70.9,67.1,88,29.87,10.0,SW,8.1,-,N/A,,Drizzle,230,2013-09-20 19:15:00
2:35 PM,70.5,67.1,89,29.87,10.0,SW,8.1,-,N/A,Rain,Rain,230,2013-09-20 19:35:00
2:55 PM,70.7,67.5,89,29.86,10.0,SSW,9.2,-,N/A,Rain,Light Rain,210,2013-09-20 19:55:00
3:15 PM,70.7,68.0,91,29.86,10.0,SSW,8.1,-,N/A,,Light Drizzle,210,2013-09-20 20:15:00
3:35 PM,70.7,68.0,91,29.86,10.0,SW,5.8,-,N/A,Rain,Rain,220,2013-09-20 20:35:00
3:55 PM,70.2,68.4,94,29.86,10.0,SW,4.6,-,N/A,Rain,Rain,220,2013-09-20 20:55:00
4:15 PM,70.2,68.7,95,29.85,10.0,SW,4.6,-,0.01,Rain,Rain,220,2013-09-20 21:15:00
4:35 PM,70.0,68.5,95,29.85,10.0,SW,4.6,-,0.01,,Light Drizzle,230,2013-09-20 21:35:00
4:55 PM,69.8,68.4,95,29.85,10.0,SW,5.8,-,0.01,Rain,Rain,230,2013-09-20 21:55:00
5:15 PM,69.6,68.2,95,29.85,7.0,WSW,6.9,-,N/A,Rain,Rain,250,2013-09-20 22:15:00
5:55 PM,68.4,67.3,96,29.85,10.0,West,5.8,-,N/A,,Light Drizzle,280,2013-09-20 22:55:00
6:15 PM,68.0,67.1,97,29.84,10.0,West,4.6,-,N/A,,Light Drizzle,260,2013-09-20 23:15:00
6:35 PM,68.0,67.1,97,29.84,10.0,Calm,Calm,-,0.01,,Overcast,0,2013-09-20 23:35:00
6:55 PM,68.0,67.1,97,29.84,10.0,WSW,4.6,-,0.01,,Overcast,250,2013-09-20 23:55:00
7:15 PM,66.7,65.7,96,29.84,7.0,West,3.5,-,N/A,Rain,Light Rain,280,2013-09-21 00:15:00
7:35 PM,66.6,65.5,96,29.85,7.0,Calm,Calm,-,N/A,Rain,Rain,0,2013-09-21 00:35:00
7:55 PM,66.7,65.8,97,29.85,7.0,West,4.6,-,N/A,,Light Drizzle,260,2013-09-21 00:55:00
8:15 PM,66.6,65.7,97,29.85,10.0,West,5.8,-,N/A,,Light Drizzle,270,2013-09-21 01:15:00
8:35 PM,66.4,65.5,97,29.86,10.0,West,6.9,-,0.01,,Mostly Cloudy,270,2013-09-21 01:35:00
8:55 PM,66.4,65.5,97,29.86,10.0,WNW,6.9,-,0.01,,Overcast,290,2013-09-21 01:55:00
9:15 PM,65.3,63.0,92,29.86,10.0,WNW,9.2,-,N/A,,Mostly Cloudy,290,2013-09-21 02:15:00
9:35 PM,64.4,61.5,90,29.87,10.0,WNW,5.8,-,N/A,,Scattered Clouds,290,2013-09-21 02:35:00
9:55 PM,63.5,60.8,91,29.87,10.0,WNW,5.8,-,N/A,,Scattered Clouds,290,2013-09-21 02:55:00
10:15 PM,62.8,60.3,91,29.87,10.0,WNW,5.8,-,N/A,,Clear,290,2013-09-21 03:15:00
10:35 PM,62.2,59.2,90,29.87,10.0,NW,6.9,-,N/A,,Clear,310,2013-09-21 03:35:00
10:55 PM,61.3,58.1,89,29.87,10.0,NW,6.9,-,N/A,,Clear,320,2013-09-21 03:55:00
11:15 PM,60.8,57.2,88,29.87,10.0,NW,6.9,-,N/A,,Clear,320,2013-09-21 04:15:00
11:35 PM,59.9,56.3,88,29.88,10.0,NW,4.6,-,0.01,,Clear,320,2013-09-21 04:35:00
11:55 PM,59.2,55.6,88,29.87,10.0,NW,5.8,-,0.01,,Clear,310,2013-09-21 04:55:00